Back to catalog

STARLINK-34076

AliveCommunicationsVLEO
NORAD 63915·PAYLOAD·🇺🇸 United States

Launched May 10, 2025 from Cape Canaveral Space Force Station

Loading…

Next Passes (next 24 hours)

TLE

FreshSource: CelesTrak SupGP

Epoch: Sep 14, 2026, 22:39 UTC

1 63915C 25095AB  26257.94423611 -.00039233  00000+0 -14208-2 0  2572
2 63915  43.0000 187.3321 0001311 268.2706  56.7109 15.27603060    14

Track STARLINK-34076 in real time with AllMySat

Download on the App Store